Regional Weather Roundup
Issued by NWS

Home | Current Version | Previous Version | Text Only | Print | Product List | Glossary Off
Versions: 1 2 3 4 5 6 7 8 9 10 11 12 13 14 15 16 17 18 19 20 21 22 23 24 25 26 27 28 29 30 31 32 33 34 35 36 37 38 39 40 41 42 43 44 45 46 47 48 49 50

000
ASUS43 KFSD 290002
RWRSD

WEATHER ROUNDUP FOR SOUTH DAKOTA
NATIONAL WEATHER SERVICE SIOUX FALLS SD
700 PM CDT WED SEP 28 2016

NOTE: "FAIR" INDICATES FEW OR NO CLOUDS BELOW 12,000 FEET WITH NO
SIGNIFICANT WEATHER AND/OR OBSTRUCTIONS TO VISIBILITY.


SDZ001>005-009-010-012>017-290100-
NORTHWEST AND NORTH CENTRAL SOUTH DAKOTA

CITY           SKY/WX    TMP DP  RH WIND       PRES   REMARKS
BUFFALO          N/A     75  47  36 E12       30.20R
FAITH            N/A     70  40  33 SE10      30.29R
MOBRIDGE       CLEAR     64  46  52 E6        30.29R
$$

SDZ012>016-024>037-041>051-057-063-072>074-290100-
SOUTHWEST AND SOUTH CENTRAL SOUTH DAKOTA

CITY           SKY/WX    TMP DP  RH WIND       PRES   REMARKS
RAPID CTY ARPT CLEAR     73  45  36 E8        30.28R
PIERRE         CLEAR     66  44  45 E8        30.28R
CUSTER         CLEAR     65  43  44 E14G23    30.38R
ELLSWORTH AFB  CLEAR     74  46  36 E10       30.28R
PHILIP         CLEAR     68  32  26 E12       30.28R
PINE RIDGE     CLEAR     75  44  33 E15G21    30.26R
WINNER         FAIR      64  46  52 E7        30.30R
$$

SDZ004>011-016>023-039-040-290100-
NORTHEAST SOUTH DAKOTA

CITY           SKY/WX    TMP DP  RH WIND       PRES   REMARKS
ABERDEEN       CLEAR     61  42  49 E7        30.32R
WATERTOWN      CLEAR     56  46  69 NE6       30.32S
SISSETON         N/A     59  46  62 N3        30.32S
$$

SDZ017-020-022-023-036>040-048>070-290100-
SOUTHEAST SOUTH DAKOTA

CITY           SKY/WX    TMP DP  RH WIND       PRES   REMARKS
SIOUX FALLS    PTCLDY    58  46  64 E12       30.31R
HURON          CLEAR     63  43  48 E7        30.29R
CHAMBERLAIN    CLEAR     65  46  50 E5        30.30R
MITCHELL       CLEAR     63  44  50 E5        30.30R
YANKTON        CLEAR     63  45  51 NE8       30.27R
$$

ABBREVIATIONS USED IN REMARKS
   TC - TEMPERATURE IN CELSIUS
  WCI - WIND CHILL INDEX
   HX - HEAT INDEX
  VSB - VISIBILITY





USA.gov is the U.S. government's official web portal to all federal, state and local government web resources and services.